STARLINK-5711, 55471

Orbit data source: Space-Track

STARLINK-5711, 55471 is a payload satellite owned by SpaceX/Seattle (US) in LEO that was launched on Thu, 02 Feb 2023 UTC via an FALCON 9 launch vehicle from the Air Force Eastern Test Range (AFETR). Payload-class satellites include a variety of spacecraft equipped with specific instruments for various scientific and technological missions. These include communications satellites like Starlink; space stations such as the ISS; scientific satellites like the Hubble; Earth observation satellites from companies like Planet Labs, Umbra, and HawkEye 360; GPS; miniature CubeSats for education and research; and military/defense satellites.

Loading next visibility...
Identifier
55471, 2023-015Y
Orbit
LEO
Country
Flag of USUS
Related business
Manufacturer
SpaceX/Seattle
Mission
Operational Commercial Communications
Bus & Motor
STARLINK, Unknown motor
Mass
305 kg wet, ~290 kg dry
Launch date (UTC)
2023-02-02 (3 years ago)
Launch vehicle
FALCON 9
Launch site
Air Force Eastern Test Range (AFETR)
Object type
Payload
Rocket body
Debris
Shape & HBR
Box + 1 Pan, 10.1 m
Radar Cross Section
13.562 m², Large (>1 m²)

Expand to show TLE details & history
Last TLE update: 10 hours ago

TLE from 10 hours ago
0 STARLINK-5711
1 55471U 23015Y   25352.56468883  .00000075  00000-0  20633-4 0  9998
2 55471  43.0047  46.5432 0001387 263.4388  96.6297 15.02535034158550
Epoch: 2025-12-18T13:33Z
TLE epoch observation values (Epoch: 2025-12-18T13:33:09.114Z)
Latitude
-0°
Longitude
115.83684°
Altitude
558.972 km
Speed
7.584 km/s
True Right ascension
03h 06m 10s
True Declination
0° 00' 00"
Sunlit
Object was in full shadow at epoch
Visualization orbit readout
Latitude
Unknown
Longitude
Unknown
Altitude
Unknown
Speed
Unknown
Apparent Right ascension
Unknown
Apparent Declination
Unknown
Sunlit
N/A
Visualization observer readout
Local Sidereal Time
22:16:12
Azimuth
Unknown
Elevation
Unknown
Doppler factor
Unknown
Orbital elements
Apogee altitude
561.968 km
Perigee altitude
560.043 km
Semi-major axis
6,939.143 km
Eccentricity
0.00014
Inclination
43.0047°
RAAN
46.5432°
Arg. of periapsis
263.4388°
True anomaly
96.64549°
Mean anomaly
96.6297°
Eccentric anomaly
96.63759°
Mean motion
3.75478 °/min
Orbital period
95.88 mins
BSTAR
0.000020633
Loading maneuver chart data...
Computing Atmospheric mass density...
Loading historical data...
Loading historical data...
Loading historical data...
Loading historical data...
Loading historical data...
Loading historical data...
Loading historical data...

Documentation

Showing up to 5 results
|